Home   Weather   Kassala   Past weeks

Flag for Sudan Past Weather in Kassala, Sudan — Yesterday and Last 2 Weeks

Now
88 °F

Sunny.


Feels Like: 85 °F
Forecast: 82 / 104 °F
Wind: 9 mph from Northwest

Location: Khartoum Airport

Current Time: Sep 26, 2016 at 10:18:01 AM

Latest Report: Sep 26, 2016 at 10:00 AM


Visibility: 10 mi

Pressure: 29.86 "Hg (28.21 "Hg at 506m altitude)

Humidity: 22%

Dew Point: 45 °F

Location of KassalaLocation

Past Weather in Kassala — Graph

°F

Kassala Temperature Yesterday

Maximum temperature yesterday: 102 °F (at 3:30 PM)
Minimum temperature yesterday: 82 °F (at 7:00 AM)
Average temperature yesterday: 93 °F

High & Low Weather Summary for the Past Weeks

 TemperatureHumidityPressure
High106 °F (Sep 13, 4:00 PM)94% (Sep 21, 4:00 AM)30.01 "Hg (Sep 21, 4:00 AM)
Low72 °F (Sep 21, 3:30 AM)9% (Sep 13, 4:00 PM)29.68 "Hg (Sep 15, 5:30 PM)
Average91 °F41%29.82 "Hg
* Reported Sep 11 9:00 AM — Sep 26 9:00 AM, Kassala, Weather by CustomWeather, © 2016

Note: Actual official high and low records may vary slightly from our data, if they occured in-between our weather recording intervals... More about our weather records

Advertising

Kassala Weather History for the Previous 24 Hours

Scroll right to see more
 ConditionsComfort  
Time TempWeatherWind HumidityBarometerVisibility
9:00 AM
Mon, Sep 26
86 °FSunny.8 mph22%29.83 "Hg10 mi
8:30 AM84 °FSunny.9 mph25%29.83 "Hg10 mi
8:00 AM84 °FSunny.7 mph25%29.83 "Hg10 mi
7:30 AM82 °FSunny.5 mph26%29.80 "Hg10 mi
7:00 AM82 °FSunny.3 mph26%29.80 "Hg10 mi
6:30 AM82 °FClear.6 mph25%29.80 "Hg10 mi
6:00 AM82 °FClear.5 mph25%29.80 "Hg10 mi
5:30 AM82 °FClear.7 mph25%29.80 "Hg10 mi
5:00 AM82 °FClear.5 mph25%29.77 "Hg10 mi
4:30 AM84 °FClear.6 mph25%29.77 "Hg10 mi
4:00 AM86 °FClear.6 mph22%29.77 "Hg10 mi
3:30 AM86 °FClear.3 mph25%29.77 "Hg10 mi
3:00 AM86 °FClear.3 mph25%29.77 "Hg10 mi
2:30 AM88 °FClear.5 mph19%29.77 "Hg10 mi
1:30 AM90 °FClear.5 mph21%29.80 "Hg10 mi
1:00 AM90 °FClear.3 mph21%29.80 "Hg10 mi
12:30 AM90 °FClear.9 mph21%29.80 "Hg10 mi
11:30 PM
Sun, Sep 25
91 °FClear.2 mph26%29.80 "Hg10 mi
11:00 PM91 °FClear.3 mph26%29.80 "Hg10 mi
10:30 PM93 °FClear.5 mph24%29.80 "Hg10 mi
10:00 PM93 °FClear.2 mph24%29.80 "Hg10 mi
9:30 PM95 °FClear.6 mph25%29.80 "Hg10 mi
8:30 PM97 °FClear.3 mph18%29.77 "Hg10 mi
8:00 PM97 °FClear.5 mph18%29.74 "Hg10 mi
7:30 PM99 °FClear.5 mph16%29.74 "Hg10 mi
7:00 PM99 °FClear.5 mph16%29.71 "Hg10 mi
6:30 PM100 °FSunny.3 mph15%29.71 "Hg10 mi
6:00 PM100 °FSunny.3 mph15%29.71 "Hg10 mi
5:00 PM102 °FSunny.3 mph12%29.71 "Hg10 mi
4:30 PM102 °FSunny.6 mph12%29.71 "Hg10 mi
4:00 PM102 °FSunny.6 mph12%29.71 "Hg10 mi
3:30 PM102 °FSunny.2 mph12%29.71 "Hg10 mi
3:00 PM100 °FSunny.6 mph15%29.74 "Hg10 mi
2:30 PM100 °FSunny.8 mph15%29.74 "Hg10 mi
2:00 PM100 °FSunny.14 mph14%29.74 "Hg10 mi
1:30 PM99 °FSunny.10 mph16%29.77 "Hg10 mi
1:00 PM99 °FSunny.5 mph17%29.80 "Hg10 mi
12:30 PM97 °FSunny.7 mph17%29.80 "Hg10 mi
12:00 PM95 °FSunny.7 mph18%29.80 "Hg10 mi
11:30 AM95 °FSunny.12 mph18%29.83 "Hg10 mi
11:00 AM93 °FSunny.6 mph20%29.83 "Hg10 mi
10:30 AM90 °FSunny.13 mph21%29.83 "Hg10 mi
10:00 AM88 °FSunny.8 mph24%29.86 "Hg10 mi
Weather by CustomWeather, © 2016

See weather overviewHow to use our weather pages